Location: Kuppenheim
(48.8299°N, 8.2568°E)
Time: 23:20:13
(UTC+00:00)

ERBS - Pass Details

Date: 28 October 2021
Orbit: 394 x 407 km, 57.0° (Epoch: 28 November)

Event Time Altitude Azimuth Distance (km) Brightness Sun altitude
Exits shadow 04:39:44 29° 240° (WSW) 770 3.1 -15.0°
Maximum altitude 04:41:15 82° 325° (NW) 414 2.1 -14.7°
Drops below altitude 10° 04:44:32 10° 54° (NE) 1,471 5.7 -14.2°
Sets 04:46:37 0° 55° (NE) 2,338 6.9 -13.8°
